GW5212 Weather Reports


time (UTC)temp
F
wind
direction
speed
knots
gust
knots
rain 1hr
in
rain 24hr
in
rain mn
in
humidity
%
barometer
mb
20260508071518 79 25 2.6 13.0 0.00 0.01 0.01 89 1017.6
20260508070540 79 23 0.0 4.3 0.00 0.01 0.01 89 1017.8
20260508065521 79 30 0.9 6.1 0.00 0.01 0.01 89 1017.8
20260508064521 78 46 0.0 1.7 0.00 0.01 0.01 90 1017.8
20260508063524 78 60 1.7 10.4 0.00 0.01 0.01 90 1017.9
20260508062602 78 19 0.9 8.7 0.00 0.01 0.01 91 1018.0
20260508061521 78 42 2.6 10.4 0.00 0.01 0.01 91 1017.9
20260508060518 78 68 0.9 6.1 0.00 0.01 0.01 92 1018.0
20260508055519 78 37 0.9 10.4 0.01 0.01 0.01 92 1018.1
20260508054521 78 41 1.7 10.4 0.01 0.01 0.01 92 1018.3
20260508053520 78 46 0.9 6.1 0.01 0.01 0.01 93 1018.3
20260508052523 78 44 0.9 4.3 0.01 0.01 0.01 95 1018.3
20260508051520 79 42 0.9 6.1 0.01 0.01 0.01 95 1018.2
20260508050542 79 354 0.9 8.7 0.01 0.01 0.01 93 1018.3
20260508045526 80 37 0.9 8.7 0.00 0.00 0.00 92 1018.4
20260508044518 81 50 0.9 10.4 0.00 0.00 0.00 94 1018.3
20260508043523 82 52 2.6 10.4 0.00 0.00 0.00 91 1018.3
20260508042539 83 56 1.7 10.4 0.00 0.00 0.00 89 1018.3
20260508041520 84 45 1.7 8.7 0.00 0.00 0.00 84 1018.2
20260508040521 83 19 0.9 6.1 0.00 0.00 0.00 83 1018.4
20260508035519 84 46 1.7 10.4 0.00 0.00 0.00 83 1018.3
20260508034521 84 74 1.7 10.4 0.00 0.00 0.00 82 1018.5
20260508033519 84 53 1.7 14.8 0.00 0.00 0.00 82 1018.6
20260508032522 84 29 1.7 10.4 0.00 0.00 0.00 82 1018.6
20260508031559 85 58 2.6 13.0 0.00 0.00 0.00 82 1018.6
20260508030521 85 73 1.7 13.0 0.00 0.00 0.00 82 1018.6
20260508025520 86 68 1.7 8.7 0.00 0.00 0.00 79 1018.7
20260508024521 85 352 0.0 4.3 0.00 0.00 0.00 78 1018.7
20260508023518 85 21 0.0 4.3 0.00 0.00 0.00 79 1018.6
20260508022519 85 65 0.9 6.1 0.00 0.00 0.00 80 1018.6
20260508021601 85 59 0.0 4.3 0.00 0.00 0.00 79 1018.7
20260508020521 85 95 0.0 1.7 0.00 0.00 0.00 80 1018.7
20260508015520 85 38 0.0 1.7 0.00 0.00 0.00 79 1018.7
20260508014521 85 317 0.0 1.7 0.00 0.00 0.00 80 1018.8
20260508013538 85 26 0.0 1.7 0.00 0.00 0.00 80 1018.8
20260508012517 85 36 0.0 0.0 0.00 0.00 0.00 78 1018.7
20260508011541 84 313 0.0 0.0 0.00 0.00 0.00 78 1018.7
20260508010541 84 89 0.0 0.0 0.00 0.00 0.00 77 1018.8
20260508005520 83 261 0.0 0.0 0.00 0.00 0.00 79 1018.7
20260508004520 82 251 0.0 0.0 0.00 0.00 0.00 80 1018.7
20260508003520 81 207 0.0 0.0 0.00 0.00 0.00 82 1018.7
20260508002517 81 250 0.0 0.0 0.00 0.00 0.00 84 1018.5
20260508001518 80 224 0.0 0.0 0.00 0.00 0.00 84 1018.4
20260508000517 79 234 0.0 0.0 0.00 0.00 0.00 85 1018.2
20260507235521 78 214 0.0 0.0 0.00 0.00 0.00 86 1018.2
20260507234539 77 206 0.0 0.0 0.00 0.00 0.00 88 1018.4
20260507233538 77 225 0.0 0.0 0.00 0.00 0.00 89 1018.2
20260507232521 77 187 0.0 0.0 0.00 0.00 0.00 91 1018.2
20260507231520 77 199 0.0 0.0 0.00 0.00 0.00 92 1018.1
20260507230517 76 237 0.0 0.0 0.00 0.00 0.00 90 1017.9
20260507225517 75 206 0.0 0.0 0.00 0.00 0.00 89 1017.9
20260507224541 74 197 0.0 0.0 0.00 0.00 0.00 91 1017.9
20260507223520 72 273 0.0 0.0 0.00 0.00 0.00 94 1017.6
20260507222521 72 209 0.0 0.0 0.00 0.00 0.00 98 1017.6
20260507221521 71 240 0.0 0.0 0.00 0.00 0.00 99 1017.5
20260507220519 71 201 0.0 0.0 0.00 0.00 0.00 99 1017.5
20260507215520 71 248 0.0 0.0 0.00 0.00 0.00 99 1017.4
20260507214520 71 268 0.0 0.0 0.00 0.00 0.00 99 1017.2
20260507213517 71 256 0.0 0.0 0.00 0.00 0.00 99 1017.0
20260507212517 71 298 0.0 0.0 0.00 0.00 0.00 99 1017.0
20260507211522 71 254 0.0 0.0 0.00 0.00 0.00 99 1017.1
20260507210538 71 246 0.0 0.0 0.00 0.00 0.00 99 1017.1
20260507205539 71 231 0.0 0.0 0.00 0.00 0.00 99 1017.0
20260507204517 71 187 0.0 0.0 0.00 0.00 0.00 99 1016.9
20260507203520 71 222 0.0 0.0 0.00 0.00 0.00 99 1016.8
20260507202517 71 317 0.0 0.0 0.00 0.00 0.00 99 1016.6
20260507201521 71 173 0.0 0.0 0.00 0.00 0.00 99 1016.5
20260507200537 71 278 0.0 0.0 0.00 0.00 0.00 99 1016.5
20260507195517 71 322 0.0 0.0 0.00 0.00 0.00 99 1016.4
20260507194517 72 283 0.0 0.0 0.00 0.00 0.00 99 1016.5
20260507193520 72 189 0.0 0.0 0.00 0.00 0.00 99 1016.3
20260507192517 72 266 0.0 0.0 0.00 0.00 0.00 99 1016.2
20260507191520 72 289 0.0 0.0 0.00 0.00 0.00 99 1016.3
20260507190539 72 270 0.0 0.0 0.00 0.00 0.00 99 1016.2
20260507185520 72 268 0.0 0.0 0.00 0.00 0.00 99 1016.2
20260507184543 72 205 0.0 0.0 0.00 0.00 0.00 99 1016.2
20260507183523 73 197 0.0 0.0 0.00 0.00 0.00 99 1016.4
20260507182522 73 257 0.0 0.0 0.00 0.00 0.00 99 1016.4
20260507181541 73 189 0.0 0.0 0.00 0.00 0.00 99 1016.5
20260507180519 73 249 0.0 0.0 0.00 0.00 0.00 99 1016.6
20260507175520 73 350 0.0 0.0 0.00 0.00 0.00 99 1016.8
20260507174521 73 255 0.0 0.0 0.00 0.00 0.00 99 1016.8
20260507173524 73 271 0.0 0.0 0.00 0.00 0.00 99 1016.8
20260507172519 73 249 0.0 0.0 0.00 0.00 0.00 99 1016.8
20260507171520 73 257 0.0 0.0 0.00 0.00 0.00 99 1016.8
20260507170522 73 300 0.0 0.0 0.00 0.00 0.00 99 1016.8
20260507165519 73 201 0.0 0.0 0.00 0.00 0.00 99 1016.9
20260507164545 74 248 0.0 0.0 0.00 0.00 0.00 99 1017.0
20260507163518 74 235 0.0 0.0 0.00 0.00 0.00 99 1017.0
20260507162522 74 175 0.0 0.0 0.00 0.00 0.00 99 1017.1
20260507161520 74 259 0.0 0.0 0.00 0.00 0.00 99 1017.2
20260507160539 74 311 0.0 0.0 0.00 0.00 0.00 99 1017.2
20260507155538 74 330 0.0 0.0 0.00 0.00 0.00 98 1017.3
20260507154520 74 241 0.0 0.0 0.00 0.00 0.00 98 1017.5
20260507153540 74 249 0.0 0.0 0.00 0.00 0.00 98 1017.6
20260507152522 74 283 0.0 0.0 0.00 0.00 0.00 98 1017.7
20260507151542 74 269 0.0 0.0 0.00 0.00 0.00 98 1017.8
20260507150523 75 258 0.0 0.0 0.00 0.00 0.00 97 1018.0
20260507145521 75 263 0.0 0.0 0.00 0.00 0.00 97 1018.0
20260507144540 75 271 0.0 0.0 0.00 0.00 0.00 97 1018.0
20260507143519 75 290 0.0 0.0 0.00 0.00 0.00 97 1017.9
20260507142522 75 327 0.0 0.0 0.00 0.00 0.00 96 1018.1
20260507141519 75 288 0.0 0.0 0.00 0.00 0.00 96 1018.0
20260507140519 76 307 0.0 0.0 0.00 0.00 0.00 96 1018.0
20260507135522 76 264 0.0 0.0 0.00 0.00 0.00 96 1017.9
20260507134542 76 255 0.0 0.0 0.00 0.00 0.00 96 1017.9
20260507133518 76 263 0.0 0.0 0.00 0.00 0.00 95 1017.9
20260507132542 76 261 0.0 0.0 0.00 0.00 0.00 94 1017.8
20260507131522 76 211 0.0 0.0 0.00 0.00 0.00 94 1017.6
20260507130522 77 167 0.0 0.0 0.00 0.00 0.00 94 1017.6
20260507125520 77 267 0.0 0.0 0.00 0.00 0.00 94 1017.5
20260507124519 77 297 0.0 0.0 0.00 0.00 0.00 93 1017.5
20260507123520 77 331 0.0 0.0 0.00 0.00 0.00 93 1017.4
20260507122542 77 274 0.0 0.0 0.00 0.00 0.00 92 1017.3
20260507121539 77 276 0.0 0.0 0.00 0.00 0.00 92 1017.4
20260507120541 77 333 0.0 0.0 0.00 0.00 0.00 91 1017.2
20260507115522 77 254 0.0 0.0 0.00 0.00 0.00 91 1017.2
20260507114539 78 256 0.0 0.0 0.00 0.00 0.00 91 1017.1
20260507113540 78 295 0.0 0.0 0.00 0.00 0.00 91 1016.9
20260507112521 79 298 0.0 0.0 0.00 0.00 0.00 91 1016.7
20260507111520 79 277 0.0 0.0 0.00 0.00 0.00 91 1016.7
20260507110522 80 316 0.0 0.0 0.00 0.00 0.00 90 1016.6
20260507105520 80 275 0.0 0.0 0.00 0.00 0.00 88 1016.3
20260507104517 80 288 0.0 0.0 0.00 0.00 0.00 88 1016.3
20260507103538 80 18 0.0 0.0 0.00 0.00 0.00 88 1016.2
20260507102522 81 330 0.0 0.0 0.00 0.00 0.00 87 1016.1
20260507101601 81 338 0.0 0.0 0.00 0.00 0.00 87 1016.1
20260507100521 81 32 0.0 0.0 0.00 0.00 0.00 86 1016.1
20260507095522 81 23 0.0 0.0 0.00 0.00 0.00 86 1016.0
20260507094522 81 133 0.0 0.0 0.00 0.00 0.00 86 1015.8
20260507093520 81 312 0.0 0.0 0.00 0.00 0.00 86 1015.8
20260507092537 81 343 0.0 0.0 0.00 0.00 0.00 86 1015.8
20260507091520 81 285 0.0 1.7 0.00 0.00 0.00 85 1015.7
20260507090522 81 318 0.0 0.0 0.00 0.00 0.00 84 1015.6
20260507085519 82 357 0.0 0.0 0.00 0.00 0.00 84 1015.5
20260507084520 82 25 0.0 0.0 0.00 0.00 0.00 84 1015.5
20260507083517 82 7 0.0 1.7 0.00 0.00 0.00 84 1015.4
20260507082516 82 36 0.0 0.0 0.00 0.00 0.00 84 1015.3
20260507081516 82 61 0.0 0.0 0.00 0.00 0.00 83 1015.4
20260507080519 82 27 0.0 0.0 0.00 0.00 0.00 84 1015.4
20260507075516 82 15 0.0 0.0 0.00 0.00 0.00 84 1015.5
20260507074617 82 44 0.0 0.0 0.00 0.00 0.00 84 1015.4
20260507073520 82 1 0.0 0.0 0.00 0.00 0.00 84 1015.5
20260507072517 82 24 0.0 0.0 0.00 0.00 0.00 84 1015.7